Location: D�derode
(51.8092°N, 10.1065°E)
Time: 05:52:37
(UTC+00:00)

MOS 1 Rocket - Pass Details

Date: 01 December 2020
Orbit: 614 x 831 km, 97.4° (Epoch: 23 January)

Event Time Altitude Azimuth Distance (km) Brightness Sun altitude
Exits shadow 18:52:46 50° 274° (W) 1,050 4.4 -33.0°
Drops below altitude 10° 18:57:32 10° 217° (SW) 2,411 6.4 -33.8°
Sets 18:59:54 0° 212° (SSW) 3,322 7.1 -34.1°
